Weather History for Holland, MI

Change the Weather History Date:

Monday, December 3, 2012

  Actual Average Record
Temperature  
Mean Temperature 51 °F 35 °F  
Max Temperature 67 °F 41 °F 67 °F (1982)
Min Temperature 35 °F 30 °F -2 °F (1976)
Degree Days  
Heating Degree Days 14 30  
Month to date heating degree days 47 89  
Since 1 July heating degree days 1288 1312  
Cooling Degree Days 0 0  
Month to date cooling degree days 0 0  
Year to date cooling degree days 1067 693  
Growing Degree Days 1 (Base 50)    
Moisture  
Dew Point 50 °F    
Average Humidity 82    
Maximum Humidity 96    
Minimum Humidity 68    
Precipitation  
Precipitation 0.00 in 0.10 in 0.75 in (1950)
Month to date precipitation 0.31 0.30  
Year to date precipitation 31.15 34.46  
Sea Level Pressure  
Sea Level Pressure 29.97 in    
Wind  
Wind Speed 6 mph (SSE)    
Max Wind Speed 33 mph    
Max Gust Speed 43 mph    
Visibility 4 miles    
Events Fog    
T = Trace of Precipitation, MM = Missing Value Source: NWS Daily Summary

Daily Weather History Graph

Daily Weather History Graph

Search for Another Location

Airport:

Trip Planner

Search our weather history database for the weather conditions in past years. The results will help you decide how hot, cold, wet, or windy it might be!

Date:

Astronomy

Dec. 03, 2012 Rise Set
Actual Time 7:57 AM EST 5:10 PM EST
Civil Twilight 7:25 AM EST 5:42 PM EST
Nautical Twilight 6:50 AM EST 6:17 PM EST
Astronomical Twilight 6:16 AM EST 6:52 PM EST
Moon 10:00 PM EST (12/3) 11:17 AM EST (12/3)
Length of Visible Light 10h 16m
Length of Day
9h 13m
Waning Gibbous, 78% of the Moon is Illuminated
Dec 3
Waning Gibbous
Dec 6
Last Quarter
Dec 13
New
Dec 20
First Quarter
Dec 28
Full

Hourly Weather History & Observations

Time (EST) Temp. Windchill Dew Point Humidity Pressure Visibility Wind Dir Wind Speed Gust Speed Precip Events Conditions
12:53 AM 36.0 °F - 34.0 °F 93% 30.09 in 0.2 mi Calm Calm - N/A Fog Fog
1:53 AM 37.0 °F - 35.1 °F 93% 30.09 in 0.2 mi Calm Calm - N/A Fog Fog
2:48 AM 37.4 °F - 35.6 °F 93% 30.08 in 0.2 mi Calm Calm - 0.01 in Fog Fog
2:53 AM 37.9 °F 35.5 °F 36.0 °F 93% 30.09 in 0.5 mi SE 3.5 mph - 0.01 in Fog Fog
3:04 AM 39.2 °F 37.0 °F 37.4 °F 93% 30.08 in 1.0 mi SE 3.5 mph - N/A   Overcast
3:11 AM 39.2 °F - 37.4 °F 93% 30.08 in 2.0 mi Calm Calm - N/A   Overcast
3:33 AM 42.8 °F 41.1 °F 39.2 °F 87% 30.08 in 3.0 mi East 3.5 mph - N/A   Overcast
3:48 AM 42.8 °F 41.1 °F 39.2 °F 87% 30.07 in 3.0 mi East 3.5 mph - N/A   Overcast
3:53 AM 42.1 °F 40.2 °F 39.9 °F 92% 30.08 in 3.0 mi East 3.5 mph - N/A   Overcast
4:14 AM 42.8 °F 40.1 °F 41.0 °F 93% 30.06 in 1.8 mi East 4.6 mph - N/A   Overcast
4:23 AM 44.6 °F 43.1 °F 41.0 °F 87% 30.06 in 1.0 mi ESE 3.5 mph - N/A   Overcast
4:43 AM 44.6 °F 42.2 °F 42.8 °F 93% 30.05 in 0.5 mi ESE 4.6 mph - N/A Fog Fog
4:53 AM 46.0 °F 43.9 °F 44.1 °F 93% 30.06 in 0.2 mi SE 4.6 mph - N/A Fog Fog
5:16 AM 48.2 °F - 44.6 °F 87% 30.04 in 0.2 mi SE 5.8 mph - N/A Fog Fog
5:53 AM 48.9 °F - 46.9 °F 93% 30.04 in 0.2 mi SE 6.9 mph - N/A Fog Fog
6:53 AM 51.1 °F - 48.9 °F 92% 30.04 in 0.2 mi SSE 11.5 mph - N/A Fog Fog
7:39 AM 51.8 °F - 50.0 °F 94% 30.02 in 0.5 mi SSE 9.2 mph - N/A Fog Fog
7:53 AM 52.0 °F - 50.0 °F 93% 30.03 in 0.5 mi SE 6.9 mph - N/A Fog Fog
8:53 AM 54.0 °F - 52.0 °F 93% 30.02 in 1.0 mi SE 9.2 mph - N/A   Overcast
9:27 AM 55.4 °F - 53.6 °F 94% 30.01 in 1.8 mi SE 8.1 mph - N/A   Overcast
9:36 AM 55.4 °F - 53.6 °F 94% 30.01 in 2.0 mi SE 9.2 mph - N/A   Overcast
10:53 AM 57.9 °F - 55.0 °F 90% 30.00 in 3.0 mi SSE 11.5 mph - N/A   Overcast
11:53 AM 59.0 °F - 55.9 °F 90% 29.96 in 4.0 mi SSE 10.4 mph - N/A   Overcast
12:22 PM 60.8 °F - 57.2 °F 88% 29.94 in 4.0 mi SSE 11.5 mph - N/A   Overcast
12:53 PM 60.1 °F - 57.0 °F 90% 29.93 in 4.0 mi SSE 10.4 mph - N/A   Overcast
1:53 PM 62.1 °F - 57.9 °F 86% 29.91 in 7.0 mi South 11.5 mph - N/A   Overcast
2:53 PM 63.0 °F - 59.0 °F 87% 29.82 in 5.0 mi South 11.5 mph - N/A   Overcast
3:51 PM 64.4 °F - 59.0 °F 83% 29.85 in 7.0 mi SSE 10.4 mph - N/A   Overcast
3:53 PM 64.0 °F - 59.0 °F 84% 29.80 in 7.0 mi SSE 11.5 mph - N/A   Overcast
4:26 PM 64.4 °F - 59.0 °F 83% 29.84 in 7.0 mi SSE 13.8 mph - N/A   Mostly Cloudy
4:53 PM 64.9 °F - 59.0 °F 81% 29.85 in 9.0 mi South 13.8 mph 23.0 mph N/A   Mostly Cloudy
5:25 PM 64.4 °F - 57.2 °F 77% 29.83 in 9.0 mi SSE 16.1 mph - N/A   Partly Cloudy
5:53 PM 64.9 °F - 57.9 °F 78% 29.83 in 10.0 mi South 12.7 mph - N/A   Clear
6:53 PM 64.9 °F - 57.9 °F 78% 29.85 in 10.0 mi South 15.0 mph - N/A   Scattered Clouds
7:53 PM 64.0 °F - 57.9 °F 80% 29.83 in 10.0 mi South 16.1 mph 23.0 mph N/A   Partly Cloudy
8:53 PM 64.9 °F - 57.0 °F 75% 29.82 in 10.0 mi SSW 13.8 mph - N/A   Scattered Clouds
9:53 PM 66.0 °F - 55.0 °F 68% 29.82 in 10.0 mi SSW 28.8 mph 38.0 mph N/A   Overcast
10:53 PM 66.0 °F - 55.0 °F 68% 29.82 in 10.0 mi SSW 26.5 mph 41.4 mph N/A   Overcast
11:53 PM 64.9 °F - 55.0 °F 70% 29.83 in 10.0 mi SSW 26.5 mph 38.0 mph N/A   Overcast